• In Belgium
  • List of Countries
  • For 7 days
  • Water Temperature
  • Satellite Maps
  • Weather Map
  • Weather Widgets
  • user-avatar
    Login

    Hourly Weather Brussels

    Today, 18 October, Wednesday

    Time Temperature Precipitation Wind Pressure Humidity
    00:00 +14°C° 0 mm 2 mps 758 mmHg 85%
    01:00 +14°C° 0 mm 2 mps 758 mmHg 86%
    02:00 +13°C° 0 mm 2 mps 758 mmHg 87%
    03:00 +13°C° 0 mm 2 mps 757 mmHg 88%
    04:00 +13°C° 0 mm 2 mps 757 mmHg 88%
    05:00 +12°C° 0 mm 2 mps 757 mmHg 88%
    06:00 +12°C° 0 mm 2 mps 756 mmHg 88%
    07:00 +14°C° 0 mm 2 mps 756 mmHg 82%
    08:00 +14°C° 0 mm 3 mps 756 mmHg 77%
    09:00 +16°C° 0 mm 3 mps 756 mmHg 72%
    10:00 +18°C° 0 mm 3 mps 756 mmHg 70%
    11:00 +19°C° 0 mm 3 mps 756 mmHg 67%
    12:00 +21°C° 0 mm 3 mps 756 mmHg 65%
    13:00 +21°C° 0 mm 3 mps 756 mmHg 67%
    14:00 +21°C° 0 mm 3 mps 755 mmHg 69%
    15:00 +21°C° 0 mm 2 mps 755 mmHg 71%
    16:00 +20°C° 0 mm 2 mps 755 mmHg 76%
    17:00 +18°C° 0 mm 2 mps 755 mmHg 81%
    18:00 +17°C° 0 mm 2 mps 755 mmHg 86%
    19:00 +17°C° 0 mm 2 mps 755 mmHg 86%
    20:00 +16°C° 0 mm 2 mps 755 mmHg 87%
    21:00 +16°C° 0 mm 2 mps 756 mmHg 88%
    22:00 +15°C° 0 mm 2 mps 755 mmHg 88%
    23:00 +15°C° 0 mm 2 mps 755 mmHg 88%

    Tomorrow, 19 October, Thursday

    Time Temperature Precipitation Wind Pressure Humidity
    00:00 +14°C° 0 mm 2 mps 755 mmHg 88%
    01:00 +14°C° 0 mm 2 mps 755 mmHg 88%
    02:00 +14°C° 0 mm 2 mps 755 mmHg 88%
    03:00 +13°C° 0 mm 2 mps 754 mmHg 88%
    04:00 +13°C° 0 mm 2 mps 754 mmHg 88%
    05:00 +12°C° 0 mm 3 mps 754 mmHg 88%
    06:00 +12°C° 0 mm 3 mps 754 mmHg 88%
    07:00 +13°C° 0 mm 3 mps 754 mmHg 82%
    08:00 +15°C° 0 mm 4 mps 754 mmHg 77%
    09:00 +17°C° 0 mm 4 mps 754 mmHg 71%
    10:00 +19°C° 0 mm 5 mps 753 mmHg 68%
    11:00 +20°C° 0 mm 5 mps 753 mmHg 65%
    12:00 +21°C° 0 mm 5 mps 753 mmHg 62%
    13:00 +21°C° 0 mm 5 mps 752 mmHg 63%
    14:00 +21°C° 0 mm 5 mps 752 mmHg 64%
    15:00 +22°C° 0 mm 5 mps 752 mmHg 65%
    16:00 +20°C° 0 mm 5 mps 752 mmHg 68%
    17:00 +19°C° 0 mm 5 mps 752 mmHg 71%
    18:00 +17°C° 0 mm 5 mps 752 mmHg 73%
    19:00 +16°C° 0 mm 5 mps 752 mmHg 76%
    20:00 +17°C° 0 mm 4 mps 753 mmHg 79%
    21:00 +15°C° 0 mm 4 mps 753 mmHg 82%
    22:00 +15°C° 0 mm 4 mps 753 mmHg 82%
    23:00 +14°C° 0 mm 4 mps 753 mmHg 83%

    Day after tomorrow, 20 October, Friday

    Time Temperature Precipitation Wind Pressure Humidity
    00:00 +14°C° 0 mm 4 mps 753 mmHg 84%
    01:00 +14°C° 0 mm 4 mps 753 mmHg 84%
    02:00 +14°C° 0 mm 4 mps 753 mmHg 83%
    03:00 +14°C° 0 mm 4 mps 753 mmHg 83%
    04:00 +14°C° 0.1 mm 5 mps 753 mmHg 83%
    05:00 +14°C° 0.1 mm 5 mps 752 mmHg 83%
    06:00 +14°C° 0.1 mm 5 mps 752 mmHg 82%
    07:00 +15°C° 0.2 mm 6 mps 752 mmHg 81%
    08:00 +15°C° 0.2 mm 7 mps 752 mmHg 81%
    09:00 +16°C° 0.2 mm 8 mps 753 mmHg 80%
    10:00 +16°C° 0.3 mm 8 mps 753 mmHg 79%
    11:00 +16°C° 0.3 mm 8 mps 753 mmHg 77%
    12:00 +16°C° 0.3 mm 7 mps 753 mmHg 76%
    13:00 +16°C° 0.2 mm 7 mps 753 mmHg 75%
    14:00 +16°C° 0.2 mm 6 mps 754 mmHg 75%
    15:00 +15°C° 0.2 mm 5 mps 754 mmHg 74%
    16:00 +15°C° 0 mm 5 mps 754 mmHg 75%
    17:00 +14°C° 0 mm 4 mps 755 mmHg 77%
    18:00 +13°C° 0 mm 4 mps 755 mmHg 78%
    19:00 +12°C° 0 mm 4 mps 756 mmHg 80%
    20:00 +12°C° 0 mm 3 mps 756 mmHg 82%
    21:00 +11°C° 0 mm 3 mps 756 mmHg 84%
    22:00 +11°C° 0 mm 3 mps 755 mmHg 84%
    23:00 +11°C° 0 mm 4 mps 755 mmHg 83%

    21 October, Saturday

    Time Temperature Precipitation Wind Pressure Humidity
    00:00 +11°C° 0 mm 4 mps 755 mmHg 83%
    01:00 +10°C° 0 mm 5 mps 754 mmHg 82%
    02:00 +12°C° 0 mm 5 mps 754 mmHg 82%
    03:00 +11°C° 0 mm 6 mps 754 mmHg 81%
    04:00 +11°C° 0 mm 6 mps 753 mmHg 83%
    05:00 +13°C° 0 mm 6 mps 753 mmHg 84%
    06:00 +12°C° 0 mm 7 mps 753 mmHg 86%
    07:00 +12°C° 1 mm 7 mps 753 mmHg 87%
    08:00 +14°C° 1 mm 7 mps 753 mmHg 87%
    09:00 +14°C° 1 mm 7 mps 753 mmHg 88%
    10:00 +15°C° 0.1 mm 7 mps 753 mmHg 81%
    11:00 +15°C° 0.1 mm 8 mps 753 mmHg 73%
    12:00 +16°C° 0.1 mm 8 mps 753 mmHg 66%
    13:00 +16°C° 0 mm 8 mps 753 mmHg 64%
    14:00 +16°C° 0 mm 8 mps 753 mmHg 62%
    15:00 +16°C° 0 mm 7 mps 753 mmHg 60%
    16:00 +15°C° 0 mm 7 mps 753 mmHg 60%
    17:00 +14°C° 0 mm 7 mps 753 mmHg 61%
    18:00 +12°C° 0 mm 7 mps 753 mmHg 61%
    19:00 +12°C° 0 mm 8 mps 753 mmHg 62%
    20:00 +12°C° 0 mm 8 mps 754 mmHg 62%
    21:00 +11°C° 0 mm 8 mps 754 mmHg 63%
    22:00 +11°C° 0 mm 9 mps 754 mmHg 64%
    23:00 +11°C° 0 mm 9 mps 754 mmHg 66%

    22 October, Sunday

    Time Temperature Precipitation Wind Pressure Humidity
    00:00 +10°C° 0 mm 9 mps 754 mmHg 67%
    01:00 +10°C° 0.1 mm 9 mps 754 mmHg 69%
    02:00 +10°C° 0.1 mm 9 mps 754 mmHg 72%
    03:00 +10°C° 0.1 mm 9 mps 754 mmHg 74%
    04:00 +10°C° 0.1 mm 8 mps 754 mmHg 75%
    05:00 +10°C° 0.1 mm 8 mps 754 mmHg 77%
    06:00 +10°C° 0.1 mm 8 mps 755 mmHg 78%
    07:00 +10°C° 0.4 mm 8 mps 755 mmHg 78%
    08:00 +10°C° 0.4 mm 7 mps 756 mmHg 78%
    09:00 +10°C° 0.4 mm 7 mps 757 mmHg 78%
    10:00 +11°C° 0.2 mm 7 mps 757 mmHg 73%
    11:00 +11°C° 0.2 mm 7 mps 758 mmHg 68%
    12:00 +12°C° 0.2 mm 7 mps 758 mmHg 63%
    13:00 +11°C° 0.1 mm 6 mps 759 mmHg 63%
    14:00 +11°C° 0.1 mm 6 mps 759 mmHg 62%
    15:00 +12°C° 0.1 mm 5 mps 760 mmHg 62%
    16:00 +10°C° 0 mm 5 mps 760 mmHg 65%
    17:00 +10°C° 0 mm 4 mps 761 mmHg 67%
    18:00 +9°C° 0 mm 3 mps 761 mmHg 70%
    19:00 +9°C° 0 mm 3 mps 762 mmHg 71%
    20:00 +8°C° 0 mm 4 mps 762 mmHg 71%
    21:00 +8°C° 0 mm 4 mps 763 mmHg 71%
    22:00 +7°C° 0 mm 4 mps 763 mmHg 74%
    23:00 +7°C° 0 mm 4 mps 763 mmHg 76%

    23 October, Monday

    Time Temperature Precipitation Wind Pressure Humidity
    00:00 +7°C° 0 mm 4 mps 763 mmHg 79%
    01:00 +7°C° 0 mm 4 mps 763 mmHg 80%
    02:00 +7°C° 0 mm 4 mps 763 mmHg 81%
    03:00 +7°C° 0 mm 4 mps 763 mmHg 83%
    04:00 +7°C° 0 mm 4 mps 764 mmHg 83%
    05:00 +7°C° 0 mm 4 mps 764 mmHg 84%
    06:00 +7°C° 0 mm 4 mps 764 mmHg 84%
    07:00 +8°C° 0 mm 5 mps 764 mmHg 82%
    08:00 +9°C° 0 mm 5 mps 764 mmHg 79%
    09:00 +10°C° 0 mm 6 mps 764 mmHg 76%
    10:00 +11°C° 0 mm 6 mps 764 mmHg 72%
    11:00 +13°C° 0 mm 6 mps 763 mmHg 69%
    12:00 +14°C° 0 mm 7 mps 763 mmHg 66%
    13:00 +14°C° 0 mm 6 mps 763 mmHg 67%
    14:00 +14°C° 0 mm 6 mps 763 mmHg 68%
    15:00 +14°C° 0 mm 5 mps 763 mmHg 68%
    16:00 +13°C° 0 mm 5 mps 763 mmHg 71%
    17:00 +13°C° 0 mm 4 mps 763 mmHg 73%
    18:00 +12°C° 0 mm 4 mps 763 mmHg 76%
    19:00 +11°C° 0 mm 4 mps 763 mmHg 76%
    20:00 +11°C° 0 mm 4 mps 763 mmHg 77%
    21:00 +10°C° 0 mm 5 mps 763 mmHg 77%
    22:00 +9°C° 0 mm 5 mps 763 mmHg 76%
    23:00 +9°C° 0 mm 5 mps 762 mmHg 76%
    Show more